This demonstration page uses our WeatherBlox Daily Observations layout. Learn more.

Hourly Observations for December 22, 2017

Temp ( °F °C ) Dew Point ( °F °C ) Humidity (%) Winds ( mph kmh ) Pressure ( in mb ) Visibility ( mi km ) Precip ( " mm )
12:15 am 00:15 Cloudy 18 -7.8 15 -9.6 87 87 N 12 19 30.27 1025 10 16.09344 0 0
12:35 am 00:35 Cloudy 18 -7.8 15 -9.5 88 88 N 14 22 30.27 1025 10 16.09344 0 0
12:55 am 00:55 Cloudy 18 -7.6 15 -9.2 88 88 N 9 15 30.27 1025 10 16.09344 0 0
1:15 am 01:15 Cloudy 18 -7.6 15 -9.2 88 88 N 12 19 30.27 1025 10 16.09344 0 0
1:35 am 01:35 Cloudy 18 -7.6 15 -9.2 88 88 N 9 15 30.27 1025 10 16.09344 0 0
1:55 am 01:55 Cloudy 18 -7.6 15 -9.3 88 88 NNW 8 13 30.27 1025 10 16.09344 0 0
2:15 am 02:15 Cloudy 18 -7.6 16 -9.1 89 89 N 9 15 30.24 1024 10 16.09344 0 0
2:35 am 02:35 Cloudy 18 -7.6 16 -9.1 89 89 N 8 13 30.27 1025 10 16.09344 0 0
2:55 am 02:55 Cloudy 18 -7.6 16 -9.1 89 89 N 8 13 30.27 1025 10 16.09344 0 0
3:15 am 03:15 Cloudy 18 -7.6 16 -9.1 89 89 NNW 7 11 30.27 1025 10 16.09344 0 0
3:35 am 03:35 Cloudy 18 -7.6 15 -9.2 88 88 NNW 5 7 30.3 1026 10 16.09344 0 0
3:55 am 03:55 Cloudy 19 -7.5 16 -9 89 89 NW 6 9 30.27 1025 10 16.09344 0 0
4:15 am 04:15 Cloudy 19 -7.5 16 -9 89 89 NW 5 7 30.3 1026 10 16.09344 0 0
4:35 am 04:35 Cloudy 19 -7.5 16 -9 89 89 NW 7 11 30.3 1026 10 16.09344 0 0
4:55 am 04:55 Cloudy 19 -7.5 16 -9 89 89 NW 3 6 30.3 1026 10 16.09344 0 0
5:15 am 05:15 Cloudy 19 -7.5 16 -9 89 89 NW 5 7 30.3 1026 10 16.09344 0 0
5:35 am 05:35 Cloudy 19 -7.5 16 -9 89 89 NW 3 6 30.3 1026 10 16.09344 0 0
5:55 am 05:55 Mostly Cloudy 18 -8 15 -9.5 89 89 WNW 3 6 30.3 1026 10 16.09344 0 0
6:15 am 06:15 Partly Cloudy 17 -8.6 14 -9.9 90 90 NW 6 9 30.33 1027 10 16.09344 0 0
6:35 am 06:35 Clear 14 -10 12 -11.2 91 91 WNW 7 11 30.33 1027 10 16.09344 0 0
6:55 am 06:55 Clear 14 -10.1 11 -11.4 90 90 WNW 7 11 30.33 1027 10 16.09344 0 0
7:15 am 07:15 Clear 13 -10.5 11 -11.7 91 91 WNW 5 7 30.33 1027 10 16.09344 0 0
7:35 am 07:35 Clear 11 -11.5 9 -12.7 91 91 NW 6 9 30.36 1028 10 16.09344 0 0
7:55 am 07:55 Clear 10 -12.2 8 -13.2 92 92 NW 5 7 30.36 1028 10 16.09344 0 0
8:15 am 08:15 Sunny 11 -11.5 10 -12.5 92 92 NNW 7 11 30.36 1028 10 16.09344 0 0
8:35 am 08:35 Sunny 13 -10.8 10 -12 91 91 NNW 5 7 30.33 1027 10 16.09344 0 0
8:55 am 08:55 Sunny 14 -9.9 12 -11.2 90 90 NW 5 7 30.33 1027 10 16.09344 0 0
9:15 am 09:15 Sunny 16 -9.1 13 -10.6 89 89 NNW 3 6 30.33 1027 10 16.09344 0 0
9:35 am 09:35 Sunny 17 -8.3 14 -10 88 88 NW 3 6 30.33 1027 10 16.09344 0 0
9:55 am 09:55 Sunny 18 -7.8 15 -9.5 88 88 NNW 3 6 30.3 1026 10 16.09344 0 0
10:15 am 10:15 Sunny 20 -6.9 17 -8.5 89 89 NW 5 7 30.3 1026 10 16.09344 0 0
10:35 am 10:35 Sunny 21 -6.2 17 -8.1 87 87 NNW 5 7 30.3 1026 10 16.09344 0 0
10:55 am 10:55 Sunny 22 -5.4 19 -7.3 87 87 WNW 7 11 30.3 1026 10 16.09344 0 0
11:15 am 11:15 Sunny 24 -4.6 19 -7.1 83 83 NW 6 9 30.27 1025 10 16.09344 0 0
11:35 am 11:35 Sunny 25 -4 20 -6.9 80 80 NW 5 7 30.27 1025 10 16.09344 0 0
11:55 am 11:55 Sunny 25 -3.7 20 -6.9 79 79 WNW 3 6 30.27 1025 10 16.09344 0 0
12:15 pm 12:15 Sunny 26 -3.2 20 -6.9 76 76 WNW 3 6 30.27 1025 10 16.09344 0 0
12:35 pm 12:35 Sunny 28 -2.5 21 -6.1 77 77 WNW 3 6 30.21 1023 10 16.09344 0 0
12:55 pm 12:55 Sunny 28 -2 21 -5.9 75 75 WNW 3 6 30.21 1023 10 16.09344 0 0
1:15 pm 13:15 Sunny 29 -1.8 21 -5.9 74 74 WNW 6 9 30.21 1023 10 16.09344 0 0
1:35 pm 13:35 Sunny 30 -1.2 21 -5.9 71 71 WNW 10 17 30.21 1023 10 16.09344 0 0
1:55 pm 13:55 Sunny 30 -1 21 -6 69 69 WNW 6 9 30.18 1022 10 16.09344 0 0
2:15 pm 14:15 Sunny 31 -0.5 22 -5.5 69 69 WNW 7 11 30.18 1022 10 16.09344 0 0
2:35 pm 14:35 Sunny 32 -0.2 22 -5.7 67 67 NW 9 15 30.18 1022 10 16.09344 0 0
2:55 pm 14:55 Sunny 32 0 22 -5.3 68 68 NW 8 13 30.18 1022 10 16.09344 0 0
3:15 pm 15:15 Sunny 32 0 22 -5.5 67 67 NW 9 15 30.18 1022 10 16.09344 0 0
3:35 pm 15:35 Sunny 32 -0.1 23 -4.8 71 71 NW 10 17 30.18 1022 10 16.09344 0 0
3:55 pm 15:55 Sunny 31 -0.3 22 -5.7 67 67 NNW 9 15 30.18 1022 10 16.09344 0 0
4:15 pm 16:15 Sunny 31 -0.7 21 -6.3 66 66 NNW 9 15 30.21 1023 10 16.09344 0 0
4:35 pm 16:35 Sunny 30 -1.1 21 -6 70 70 NNW 5 7 30.21 1023 10 16.09344 0 0
4:55 pm 16:55 Sunny 29 -1.7 21 -6 73 73 NNW 5 7 30.21 1023 10 16.09344 0 0
5:15 pm 17:15 Clear 28 -2.2 21 -6 75 75 NNW 3 6 30.21 1023 10 16.09344 0 0
5:35 pm 17:35 Clear 27 -3 21 -6.1 79 79 Calm 30.24 1024 10 16.09344 0 0
5:55 pm 17:55 Clear 24 -4.7 19 -7.2 83 83 Calm 30.24 1024 10 16.09344 0 0
6:15 pm 18:15 Clear 23 -5.2 19 -7.1 87 87 Calm 30.27 1025 10 16.09344 0 0
6:35 pm 18:35 Clear 21 -6.1 18 -7.6 89 89 N 3 6 30.3 1026 10 16.09344 0 0
6:55 pm 18:55 Clear 20 -6.7 18 -8 91 91 N 7 11 30.3 1026 10 16.09344 0 0
7:15 pm 19:15 Clear 20 -6.4 18 -7.6 91 91 N 10 17 30.3 1026 10 16.09344 0 0
7:35 pm 19:35 Clear 20 -6.6 17 -8.2 89 89 N 10 17 30.3 1026 10 16.09344 0 0
7:55 pm 19:55 Clear 21 -6.2 18 -8 87 87 N 8 13 30.3 1026 10 16.09344 0 0
8:15 pm 20:15 Clear 19 -7 16 -8.8 87 87 N 6 9 30.3 1026 10 16.09344 0 0
8:35 pm 20:35 Clear 19 -7.1 17 -8.4 91 91 N 8 13 30.3 1026 10 16.09344 0 0
8:55 pm 20:55 Clear 21 -6.2 18 -8 87 87 N 9 15 30.3 1026 10 16.09344 0 0
9:15 pm 21:15 Clear 21 -6.3 18 -7.7 90 90 N 9 15 30.33 1027 10 16.09344 0 0
9:35 pm 21:35 Partly Cloudy 19 -7.2 17 -8.2 93 93 NNE 7 11 30.33 1027 10 16.09344 0 0
9:55 pm 21:55 Cloudy 22 -5.8 20 -6.8 93 93 NNE 10 17 30.33 1027 10 16.09344 0 0
10:15 pm 22:15 Cloudy 22 -5.3 20 -6.5 91 91 NNE 9 15 30.36 1028 10 16.09344 0 0
10:35 pm 22:35 Cloudy 22 -5.5 20 -6.5 93 93 NNE 8 13 30.36 1028 10 16.09344 0 0
10:55 pm 22:55 Cloudy 22 -5.5 20 -6.5 93 93 NE 12 19 30.36 1028 10 16.09344 0 0
11:15 pm 23:15 Cloudy 22 -5.5 20 -6.5 93 93 NE 10 17 30.36 1028 10 16.09344 0 0
11:35 pm 23:35 Cloudy 22 -5.5 20 -6.5 93 93 NNE 9 15 30.36 1028 10 16.09344 0 0
11:55 pm 23:55 Cloudy 22 -5.5 20 -6.5 93 93 NNE 8 13 30.36 1028 10 16.09344 0 0

Powered by AerisWeather